Location: N�rnberg
(49.4471°N, 11.0632°E)
Time: 18:42:16
(UTC+01:00)

Envisat - Pass Details

Date: 22 February 2026
Orbit: 761 x 763 km, 98.4° (Epoch: 6 March)

Event Time Altitude Azimuth Distance (km) Brightness Sun altitude
Rises 03:44:47 0° 9° (N) 3,236 6.7 -33.8°
Reaches altitude 10° 03:47:09 10° 4° (N) 2,306 5.8 -33.4°
Enters shadow 03:48:25 17° 358° (N) 1,841 5.1 -33.2°
